When you browse on this site, cookies collect data to enhance your experience and personalize the content and advertising you see.
Visit our Privacy Policy to learn more. By continuing to use the site, you agree to this use of cookies and data.
  • En España
  • Lista de países
  • Para 7 días
  • Temperatura del agua
  • El tiempo en el mapa
  • Informadores
  • user-avatar
    Iniciar sesión

    Tiempo cada hora Krakow

    Hoy, 28 Mayo, Jueves

    Tiempo Temperatura Precipitaciones Viento Presión Humedad
    00:00 +10°C° 0 mm 1 mps 750 mmHg 92%
    01:00 +10°C° 0 mm 1 mps 750 mmHg 92%
    02:00 +10°C° 0 mm 1 mps 750 mmHg 93%
    03:00 +10°C° 0 mm 1 mps 749 mmHg 93%
    04:00 +10°C° 0 mm 1 mps 749 mmHg 93%
    05:00 +10°C° 0.1 mm 2 mps 749 mmHg 90%
    06:00 +13°C° 0.1 mm 2 mps 749 mmHg 88%
    07:00 +14°C° 0.1 mm 2 mps 748 mmHg 86%
    08:00 +15°C° 0.6 mm 2 mps 748 mmHg 81%
    09:00 +16°C° 0.6 mm 3 mps 748 mmHg 76%
    10:00 +17°C° 0.6 mm 3 mps 748 mmHg 71%
    11:00 +17°C° 0.7 mm 3 mps 747 mmHg 70%
    12:00 +18°C° 0.7 mm 4 mps 747 mmHg 70%
    13:00 +18°C° 0.7 mm 4 mps 747 mmHg 69%
    14:00 +18°C° 0.6 mm 4 mps 746 mmHg 70%
    15:00 +18°C° 0.6 mm 4 mps 746 mmHg 71%
    16:00 +18°C° 0.6 mm 4 mps 746 mmHg 72%
    17:00 +15°C° 0.6 mm 4 mps 746 mmHg 77%
    18:00 +14°C° 0.6 mm 4 mps 746 mmHg 81%
    19:00 +13°C° 0.6 mm 3 mps 747 mmHg 85%
    20:00 +12°C° 0.4 mm 3 mps 747 mmHg 88%
    21:00 +11°C° 0.4 mm 3 mps 747 mmHg 90%
    22:00 +12°C° 0.4 mm 2 mps 747 mmHg 93%
    23:00 +10°C° 0.1 mm 2 mps 747 mmHg 94%

    Mañana, 29 Mayo, Viernes

    Tiempo Temperatura Precipitaciones Viento Presión Humedad
    00:00 +10°C° 0.1 mm 2 mps 747 mmHg 95%
    01:00 +10°C° 0.1 mm 2 mps 747 mmHg 96%
    02:00 +10°C° 0 mm 3 mps 747 mmHg 96%
    03:00 +10°C° 0 mm 3 mps 747 mmHg 96%
    04:00 +10°C° 0 mm 3 mps 747 mmHg 96%
    05:00 +10°C° 0 mm 3 mps 747 mmHg 95%
    06:00 +11°C° 0 mm 3 mps 747 mmHg 94%
    07:00 +11°C° 0 mm 4 mps 747 mmHg 93%
    08:00 +11°C° 0.1 mm 4 mps 747 mmHg 90%
    09:00 +11°C° 0.1 mm 4 mps 747 mmHg 86%
    10:00 +11°C° 0.1 mm 4 mps 747 mmHg 83%
    11:00 +12°C° 0.1 mm 4 mps 747 mmHg 78%
    12:00 +13°C° 0.1 mm 4 mps 746 mmHg 74%
    13:00 +14°C° 0.1 mm 4 mps 746 mmHg 69%
    14:00 +14°C° 0.3 mm 4 mps 746 mmHg 70%
    15:00 +15°C° 0.3 mm 4 mps 746 mmHg 71%
    16:00 +15°C° 0.3 mm 4 mps 745 mmHg 72%
    17:00 +14°C° 0.3 mm 4 mps 745 mmHg 76%
    18:00 +13°C° 0.3 mm 4 mps 745 mmHg 80%
    19:00 +12°C° 0.3 mm 4 mps 745 mmHg 84%
    20:00 +11°C° 0.1 mm 3 mps 745 mmHg 86%
    21:00 +10°C° 0.1 mm 3 mps 745 mmHg 88%
    22:00 +9°C° 0.1 mm 3 mps 745 mmHg 90%
    23:00 +8°C° 0 mm 3 mps 745 mmHg 91%

    Pasado mañana, 30 Mayo, Sábado

    Tiempo Temperatura Precipitaciones Viento Presión Humedad
    00:00 +8°C° 0 mm 3 mps 745 mmHg 91%
    01:00 +8°C° 0 mm 3 mps 745 mmHg 92%
    02:00 +7°C° 0 mm 3 mps 745 mmHg 93%
    03:00 +7°C° 0 mm 3 mps 745 mmHg 94%
    04:00 +5°C° 0 mm 3 mps 745 mmHg 95%
    05:00 +7°C° 0 mm 3 mps 745 mmHg 93%
    06:00 +7°C° 0 mm 4 mps 745 mmHg 91%
    07:00 +8°C° 0 mm 4 mps 744 mmHg 88%
    08:00 +8°C° 0 mm 4 mps 744 mmHg 85%
    09:00 +10°C° 0 mm 4 mps 744 mmHg 82%
    10:00 +10°C° 0 mm 5 mps 744 mmHg 79%
    11:00 +11°C° 0.1 mm 4 mps 744 mmHg 81%
    12:00 +10°C° 0.1 mm 4 mps 744 mmHg 84%
    13:00 +10°C° 0.1 mm 4 mps 744 mmHg 86%
    14:00 +10°C° 0.1 mm 4 mps 744 mmHg 87%
    15:00 +10°C° 0.1 mm 4 mps 743 mmHg 88%
    16:00 +10°C° 0.1 mm 4 mps 743 mmHg 89%
    17:00 +10°C° 0.1 mm 4 mps 743 mmHg 91%
    18:00 +10°C° 0.1 mm 3 mps 743 mmHg 92%
    19:00 +9°C° 0.1 mm 3 mps 742 mmHg 93%
    20:00 +8°C° 0.1 mm 4 mps 742 mmHg 94%
    21:00 +8°C° 0.1 mm 4 mps 742 mmHg 95%
    22:00 +8°C° 0.1 mm 4 mps 742 mmHg 95%
    23:00 +8°C° 0.2 mm 5 mps 741 mmHg 96%

    31 Mayo, Domingo

    Tiempo Temperatura Precipitaciones Viento Presión Humedad
    00:00 +8°C° 0.2 mm 5 mps 741 mmHg 96%
    01:00 +8°C° 0.2 mm 5 mps 740 mmHg 96%
    02:00 +9°C° 2 mm 5 mps 740 mmHg 96%
    03:00 +9°C° 2 mm 5 mps 740 mmHg 97%
    04:00 +9°C° 2 mm 5 mps 739 mmHg 97%
    05:00 +9°C° 2.4 mm 5 mps 739 mmHg 97%
    06:00 +10°C° 2.4 mm 5 mps 739 mmHg 97%
    07:00 +10°C° 2.4 mm 5 mps 739 mmHg 97%
    08:00 +10°C° 3.3 mm 5 mps 739 mmHg 97%
    09:00 +11°C° 3.3 mm 4 mps 739 mmHg 97%
    10:00 +11°C° 3.3 mm 4 mps 739 mmHg 97%
    11:00 +12°C° 0.9 mm 4 mps 739 mmHg 97%
    12:00 +12°C° 0.9 mm 3 mps 739 mmHg 97%
    13:00 +13°C° 0.9 mm 3 mps 740 mmHg 96%
    14:00 +13°C° 0.6 mm 4 mps 740 mmHg 96%
    15:00 +14°C° 0.6 mm 4 mps 740 mmHg 96%
    16:00 +14°C° 0.6 mm 4 mps 740 mmHg 96%
    17:00 +14°C° 0.6 mm 4 mps 740 mmHg 96%
    18:00 +16°C° 0.6 mm 3 mps 740 mmHg 95%
    19:00 +16°C° 0.6 mm 3 mps 740 mmHg 95%
    20:00 +14°C° 0.5 mm 3 mps 741 mmHg 95%
    21:00 +14°C° 0.5 mm 4 mps 741 mmHg 96%
    22:00 +14°C° 0.5 mm 4 mps 741 mmHg 96%
    23:00 +14°C° 0.1 mm 4 mps 741 mmHg 96%

    1 Junio, Lunes

    Tiempo Temperatura Precipitaciones Viento Presión Humedad
    00:00 +13°C° 0.1 mm 4 mps 742 mmHg 96%
    01:00 +13°C° 0.1 mm 4 mps 742 mmHg 96%
    02:00 +13°C° 0 mm 4 mps 742 mmHg 96%
    03:00 +12°C° 0 mm 4 mps 742 mmHg 96%
    04:00 +12°C° 0 mm 4 mps 742 mmHg 96%
    05:00 +12°C° 0 mm 4 mps 742 mmHg 95%
    06:00 +12°C° 0 mm 4 mps 743 mmHg 93%
    07:00 +12°C° 0 mm 5 mps 743 mmHg 91%
    08:00 +13°C° 0 mm 5 mps 743 mmHg 90%
    09:00 +13°C° 0 mm 5 mps 744 mmHg 88%
    10:00 +14°C° 0 mm 5 mps 744 mmHg 87%
    11:00 +14°C° 0.2 mm 5 mps 744 mmHg 86%
    12:00 +15°C° 0.2 mm 5 mps 744 mmHg 85%
    13:00 +15°C° 0.2 mm 4 mps 744 mmHg 84%
    14:00 +15°C° 0.4 mm 4 mps 744 mmHg 85%
    15:00 +15°C° 0.4 mm 4 mps 744 mmHg 86%
    16:00 +15°C° 0.4 mm 4 mps 744 mmHg 87%
    17:00 +14°C° 0.1 mm 3 mps 744 mmHg 88%
    18:00 +14°C° 0.1 mm 3 mps 744 mmHg 89%
    19:00 +14°C° 0.1 mm 2 mps 744 mmHg 91%
    20:00 +14°C° 0.1 mm 2 mps 744 mmHg 92%
    21:00 +12°C° 0.1 mm 3 mps 744 mmHg 93%
    22:00 +11°C° 0.1 mm 3 mps 744 mmHg 93%
    23:00 +11°C° 0 mm 3 mps 744 mmHg 94%

    2 Junio, Martes

    Tiempo Temperatura Precipitaciones Viento Presión Humedad
    00:00 +10°C° 0 mm 3 mps 744 mmHg 95%
    01:00 +10°C° 0 mm 3 mps 744 mmHg 95%
    02:00 +10°C° 0 mm 3 mps 744 mmHg 96%
    03:00 +10°C° 0 mm 3 mps 744 mmHg 96%
    04:00 +10°C° 0 mm 3 mps 744 mmHg 96%
    05:00 +11°C° 0 mm 3 mps 744 mmHg 95%
    06:00 +12°C° 0 mm 3 mps 744 mmHg 94%
    07:00 +13°C° 0 mm 4 mps 744 mmHg 92%
    08:00 +14°C° 0.2 mm 4 mps 745 mmHg 89%
    09:00 +15°C° 0.2 mm 4 mps 745 mmHg 85%
    10:00 +17°C° 0.2 mm 4 mps 745 mmHg 82%
    11:00 +16°C° 0.3 mm 5 mps 744 mmHg 79%
    12:00 +17°C° 0.3 mm 5 mps 744 mmHg 76%
    13:00 +19°C° 0.3 mm 5 mps 744 mmHg 73%
    14:00 +19°C° 0.2 mm 5 mps 744 mmHg 73%
    15:00 +19°C° 0.2 mm 5 mps 744 mmHg 73%
    16:00 +19°C° 0.2 mm 5 mps 743 mmHg 73%
    17:00 +17°C° 0.1 mm 5 mps 743 mmHg 77%
    18:00 +17°C° 0.1 mm 4 mps 743 mmHg 81%
    19:00 +16°C° 0.1 mm 3 mps 743 mmHg 85%
    20:00 +14°C° 0 mm 3 mps 744 mmHg 87%
    21:00 +13°C° 0 mm 3 mps 744 mmHg 89%
    22:00 +12°C° 0 mm 3 mps 744 mmHg 92%
    23:00 +11°C° 0 mm 3 mps 744 mmHg 93%
    Mostrar más